Location: Keewatin
(47.4004°N, 93.0827°W)
Time: 08:38:37
(UTC+00:00)

KKS-1 - Pass Details

Date: 29 February 2020
Orbit: 637 x 650 km, 98.3° (Epoch: 07 April)

Event Time Altitude Azimuth Distance (km) Brightness Sun altitude
Rises 11:32:59 0° 113° (ESE) 2,947 ? -14.4°
Reaches altitude 10° 11:36:10 10° 88° (E) 2,040 ? -13.9°
Maximum altitude 11:38:25 14° 58° (ENE) 1,794 ? -13.5°
Drops below altitude 10° 11:40:40 10° 27° (NNE) 2,043 ? -13.1°
Sets 11:43:50 0° 3° (N) 2,956 ? -12.6°
